Time,TemperatureF,DewpointF,PressureIn,WindDirection,WindDirectionDegrees,WindSpeedMPH,WindSpeedGustMPH,Humidity,HourlyPrecipIn,Conditions,Clouds,dailyrainin,SoftwareType,DateUTC
2013-04-08 00:01:00,65.5,38.5,29.17,SE,135,7.6,8.1,37,0.00,,,0.00,VWS V13.01,2013-04-08 05:01:00,
2013-04-08 00:06:00,65.5,38.5,29.14,SE,135,6.3,6.3,37,0.00,,,0.00,VWS V13.01,2013-04-08 05:06:00,
2013-04-08 00:11:00,65.5,38.5,29.14,SE,135,11.0,11.0,37,0.00,,,0.00,VWS V13.01,2013-04-08 05:11:00,
2013-04-08 00:16:00,65.1,38.2,29.14,South,180,5.4,8.1,37,0.00,,,0.00,VWS V13.01,2013-04-08 05:16:00,
2013-04-08 00:22:00,65.1,38.2,29.14,South,180,4.9,8.7,37,0.00,,,0.00,VWS V13.01,2013-04-08 05:22:00,
2013-04-08 00:47:00,64.4,38.9,29.17,South,180,4.9,4.9,39,0.00,,,0.00,VWS V13.01,2013-04-08 05:47:00,
2013-04-08 00:52:00,64.4,38.9,29.17,South,180,8.1,11.0,39,0.00,,,0.00,VWS V13.01,2013-04-08 05:52:00,
2013-04-08 00:57:00,64.2,39.4,29.17,South,180,8.1,8.1,40,0.00,,,0.00,VWS V13.01,2013-04-08 05:57:00,
2013-04-08 01:02:00,63.9,39.7,29.17,SE,135,10.1,13.2,41,0.00,,,0.00,VWS V13.01,2013-04-08 06:02:00,
2013-04-08 01:07:00,63.7,40.2,29.17,South,180,3.1,8.3,42,0.00,,,0.00,VWS V13.01,2013-04-08 06:07:00,
2013-04-08 01:12:00,63.5,40.0,29.17,South,180,3.6,8.7,42,0.00,,,0.00,VWS V13.01,2013-04-08 06:12:00,
2013-04-08 01:18:00,63.3,40.5,29.17,South,180,6.3,6.3,43,0.00,,,0.00,VWS V13.01,2013-04-08 06:18:00,
2013-04-08 01:23:00,63.3,41.1,29.17,SW,225,4.9,7.6,44,0.00,,,0.00,VWS V13.01,2013-04-08 06:23:00,
2013-04-08 01:28:00,63.1,40.9,29.17,South,180,3.6,7.2,44,0.00,,,0.00,VWS V13.01,2013-04-08 06:28:00,
2013-04-08 01:33:00,63.1,40.9,29.17,SE,135,3.1,3.6,44,0.00,,,0.00,VWS V13.01,2013-04-08 06:33:00,
2013-04-08 01:38:00,63.1,40.9,29.17,SE,135,4.9,12.3,44,0.00,,,0.00,VWS V13.01,2013-04-08 06:38:00,
2013-04-08 01:43:00,63.1,40.9,29.17,South,180,0.0,5.4,44,0.00,,,0.00,VWS V13.01,2013-04-08 06:43:00,
2013-04-08 01:48:00,63.0,40.7,29.17,SE,135,3.1,7.2,44,0.00,,,0.00,VWS V13.01,2013-04-08 06:48:00,
2013-04-08 01:53:00,62.8,40.6,29.17,East,90,3.6,3.6,44,0.00,,,0.00,VWS V13.01,2013-04-08 06:53:00,
2013-04-08 01:58:00,62.8,40.6,29.17,South,180,5.8,5.8,44,0.00,,,0.00,VWS V13.01,2013-04-08 06:58:00,
2013-04-08 02:03:00,62.6,40.4,29.17,SE,135,3.1,9.6,44,0.00,,,0.00,VWS V13.01,2013-04-08 07:03:00,
2013-04-08 02:08:00,62.8,40.0,29.17,South,180,4.0,6.3,43,0.00,,,0.00,VWS V13.01,2013-04-08 07:08:00,
2013-04-08 02:13:00,62.8,40.0,29.17,East,90,5.4,5.8,43,0.00,,,0.00,VWS V13.01,2013-04-08 07:13:00,
2013-04-08 02:19:00,62.8,39.4,29.17,South,180,6.3,7.2,42,0.00,,,0.00,VWS V13.01,2013-04-08 07:19:00,
2013-04-08 02:24:00,62.8,38.8,29.17,South,180,4.9,8.7,41,0.00,,,0.00,VWS V13.01,2013-04-08 07:24:00,
2013-04-08 02:29:00,62.8,38.8,29.17,SE,135,5.4,5.4,41,0.00,,,0.00,VWS V13.01,2013-04-08 07:29:00,
2013-04-08 02:35:00,62.8,38.1,29.14,SE,135,7.2,8.1,40,0.00,,,0.00,VWS V13.01,2013-04-08 07:35:00,
2013-04-08 02:40:00,62.8,38.1,29.14,SW,225,8.1,8.1,40,0.00,,,0.00,VWS V13.01,2013-04-08 07:40:00,
2013-04-08 02:45:00,62.8,38.1,29.14,SE,135,4.9,8.1,40,0.00,,,0.00,VWS V13.01,2013-04-08 07:45:00,
2013-04-08 02:50:00,62.8,38.1,29.14,South,180,8.3,8.3,40,0.00,,,0.00,VWS V13.01,2013-04-08 07:50:00,
2013-04-08 02:55:00,62.6,37.3,29.14,ESE,112,5.4,11.0,39,0.00,,,0.00,VWS V13.01,2013-04-08 07:55:00,
2013-04-08 03:00:00,62.6,37.3,29.14,SE,135,3.6,8.7,39,0.00,,,0.00,VWS V13.01,2013-04-08 08:00:00,
2013-04-08 03:05:00,62.6,37.3,29.14,South,180,7.6,8.7,39,0.00,,,0.00,VWS V13.01,2013-04-08 08:05:00,
2013-04-08 03:11:00,62.6,37.3,29.14,ESE,112,4.9,4.9,39,0.00,,,0.00,VWS V13.01,2013-04-08 08:11:00,
2013-04-08 03:16:00,62.6,37.3,29.14,South,180,5.8,13.2,39,0.00,,,0.00,VWS V13.01,2013-04-08 08:16:00,
2013-04-08 03:22:00,62.8,37.5,29.14,SW,225,3.1,8.3,39,0.00,,,0.00,VWS V13.01,2013-04-08 08:22:00,
2013-04-08 03:27:00,62.8,36.8,29.14,South,180,8.3,10.1,38,0.00,,,0.00,VWS V13.01,2013-04-08 08:27:00,
2013-04-08 03:32:00,62.6,36.7,29.12,SE,135,4.0,4.0,38,0.00,,,0.00,VWS V13.01,2013-04-08 08:32:00,
2013-04-08 03:37:00,62.6,36.7,29.12,South,180,0.0,2.7,38,0.00,,,0.00,VWS V13.01,2013-04-08 08:37:00,
2013-04-08 03:43:00,62.4,37.2,29.12,SSE,158,4.5,7.6,39,0.00,,,0.00,VWS V13.01,2013-04-08 08:43:00,
2013-04-08 03:48:00,62.2,37.0,29.14,South,180,8.3,10.1,39,0.00,,,0.00,VWS V13.01,2013-04-08 08:48:00,
2013-04-08 03:53:00,62.2,36.3,29.14,SW,225,7.2,8.1,38,0.00,,,0.00,VWS V13.01,2013-04-08 08:53:00,
2013-04-08 03:58:00,62.2,36.3,29.14,South,180,6.3,8.7,38,0.00,,,0.00,VWS V13.01,2013-04-08 08:58:00,
2013-04-08 04:03:00,62.2,36.3,29.12,South,180,6.3,6.3,38,0.00,,,0.00,VWS V13.01,2013-04-08 09:03:00,
2013-04-08 04:08:00,62.4,36.5,29.12,South,180,8.1,8.7,38,0.00,,,0.00,VWS V13.01,2013-04-08 09:08:00,
2013-04-08 04:13:00,62.4,36.5,29.12,SE,135,11.4,11.4,38,0.00,,,0.00,VWS V13.01,2013-04-08 09:13:00,
2013-04-08 04:19:00,62.4,36.5,29.12,South,180,9.6,9.6,38,0.00,,,0.00,VWS V13.01,2013-04-08 09:19:00,
2013-04-08 04:24:00,62.4,35.8,29.12,SE,135,10.5,10.5,37,0.00,,,0.00,VWS V13.01,2013-04-08 09:24:00,
2013-04-08 04:29:00,62.4,35.8,29.12,SE,135,4.0,4.0,37,0.00,,,0.00,VWS V13.01,2013-04-08 09:29:00,
2013-04-08 04:34:00,62.2,35.7,29.14,South,180,4.0,5.8,37,0.00,,,0.00,VWS V13.01,2013-04-08 09:34:00,
2013-04-08 04:39:00,62.4,35.8,29.14,South,180,6.3,6.3,37,0.00,,,0.00,VWS V13.01,2013-04-08 09:39:00,
2013-04-08 04:44:00,62.2,35.7,29.14,South,180,7.6,9.2,37,0.00,,,0.00,VWS V13.01,2013-04-08 09:44:00,
2013-04-08 04:50:00,62.2,35.7,29.14,SW,225,3.1,5.8,37,0.00,,,0.00,VWS V13.01,2013-04-08 09:50:00,
2013-04-08 04:55:00,62.2,35.7,29.14,South,180,2.7,9.6,37,0.00,,,0.00,VWS V13.01,2013-04-08 09:55:00,
2013-04-08 05:00:00,62.2,35.7,29.14,South,180,8.3,8.3,37,0.00,,,0.00,VWS V13.01,2013-04-08 10:00:00,
2013-04-08 05:05:00,62.2,35.7,29.14,South,180,3.6,3.6,37,0.00,,,0.00,VWS V13.01,2013-04-08 10:05:00,
2013-04-08 05:10:00,62.1,35.5,29.14,South,180,2.7,2.7,37,0.00,,,0.00,VWS V13.01,2013-04-08 10:10:00,
2013-04-08 05:15:00,61.9,36.0,29.12,SE,135,7.6,7.6,38,0.00,,,0.00,VWS V13.01,2013-04-08 10:15:00,
2013-04-08 05:21:00,61.9,36.0,29.12,East,90,4.0,4.0,38,0.00,,,0.00,VWS V13.01,2013-04-08 10:21:00,
2013-04-08 05:26:00,61.7,35.9,29.12,SE,135,4.9,4.9,38,0.00,,,0.00,VWS V13.01,2013-04-08 10:26:00,
2013-04-08 05:31:00,61.7,35.9,29.12,South,180,7.2,8.1,38,0.00,,,0.00,VWS V13.01,2013-04-08 10:31:00,
2013-04-08 05:36:00,61.9,36.0,29.12,SSE,158,4.0,4.0,38,0.00,,,0.00,VWS V13.01,2013-04-08 10:36:00,
2013-04-08 05:42:00,61.9,36.0,29.12,South,180,6.3,7.6,38,0.00,,,0.00,VWS V13.01,2013-04-08 10:42:00,
2013-04-08 05:47:00,61.9,36.0,29.12,SW,225,7.2,7.2,38,0.00,,,0.00,VWS V13.01,2013-04-08 10:47:00,
2013-04-08 05:52:00,61.9,36.0,29.12,South,180,0.0,4.0,38,0.00,,,0.00,VWS V13.01,2013-04-08 10:52:00,
2013-04-08 05:57:00,61.9,36.0,29.12,South,180,3.6,7.6,38,0.00,,,0.00,VWS V13.01,2013-04-08 10:57:00,
2013-04-08 06:02:00,62.1,35.5,29.14,South,180,3.1,3.1,37,0.00,,,0.00,VWS V13.01,2013-04-08 11:02:00,
2013-04-08 06:07:00,62.1,35.5,29.14,South,180,8.1,8.1,37,0.00,,,0.00,VWS V13.01,2013-04-08 11:07:00,
2013-04-08 06:13:00,61.9,35.3,29.14,South,180,4.0,6.3,37,0.00,,,0.00,VWS V13.01,2013-04-08 11:13:00,
2013-04-08 06:18:00,61.9,36.0,29.12,South,180,2.7,7.2,38,0.00,,,0.00,VWS V13.01,2013-04-08 11:18:00,
2013-04-08 06:23:00,61.7,35.9,29.12,SW,225,2.7,2.7,38,0.00,,,0.00,VWS V13.01,2013-04-08 11:23:00,
2013-04-08 06:28:00,61.7,35.9,29.12,South,180,2.7,3.6,38,0.00,,,0.00,VWS V13.01,2013-04-08 11:28:00,
2013-04-08 06:33:00,61.5,35.7,29.14,South,180,4.0,4.5,38,0.00,,,0.00,VWS V13.01,2013-04-08 11:33:00,
2013-04-08 06:39:00,61.5,35.7,29.14,South,180,2.7,4.9,38,0.00,,,0.00,VWS V13.01,2013-04-08 11:39:00,
2013-04-08 06:44:00,61.5,35.7,29.14,South,180,4.0,11.9,38,0.00,,,0.00,VWS V13.01,2013-04-08 11:44:00,
2013-04-08 06:49:00,61.5,35.7,29.14,South,180,0.0,3.1,38,0.00,,,0.00,VWS V13.01,2013-04-08 11:49:00,
2013-04-08 06:54:00,61.5,35.7,29.14,SW,225,4.0,7.6,38,0.00,,,0.00,VWS V13.01,2013-04-08 11:54:00,
2013-04-08 06:59:00,61.7,35.9,29.14,South,180,3.6,3.6,38,0.00,,,0.00,VWS V13.01,2013-04-08 11:59:00,
2013-04-08 07:04:00,61.7,35.9,29.14,South,180,6.3,6.3,38,0.00,,,0.00,VWS V13.01,2013-04-08 12:04:00,
2013-04-08 07:09:00,61.9,36.0,29.14,South,180,2.7,4.0,38,0.00,,,0.00,VWS V13.01,2013-04-08 12:09:00,
2013-04-08 07:14:00,62.1,35.5,29.14,SW,225,0.0,3.6,37,0.00,,,0.00,VWS V13.01,2013-04-08 12:14:00,
2013-04-08 07:20:00,62.2,35.7,29.14,SW,225,2.2,8.7,37,0.00,,,0.00,VWS V13.01,2013-04-08 12:20:00,
2013-04-08 07:25:00,62.6,36.0,29.14,SW,225,2.2,2.2,37,0.00,,,0.00,VWS V13.01,2013-04-08 12:25:00,
2013-04-08 07:30:00,62.8,35.5,29.14,South,180,2.7,6.3,36,0.00,,,0.00,VWS V13.01,2013-04-08 12:30:00,
2013-04-08 07:35:00,63.1,35.8,29.14,SW,225,6.3,7.2,36,0.00,,,0.00,VWS V13.01,2013-04-08 12:35:00,
2013-04-08 07:40:00,63.3,35.9,29.14,SE,135,3.6,3.6,36,0.00,,,0.00,VWS V13.01,2013-04-08 12:40:00,
2013-04-08 07:45:00,64.0,35.9,29.14,SE,135,0.0,5.8,35,0.00,,,0.00,VWS V13.01,2013-04-08 12:45:00,
2013-04-08 07:51:00,64.4,36.2,29.14,South,180,5.8,5.8,35,0.00,,,0.00,VWS V13.01,2013-04-08 12:51:00,
2013-04-08 07:56:00,64.4,35.5,29.14,South,180,3.1,4.9,34,0.00,,,0.00,VWS V13.01,2013-04-08 12:56:00,
2013-04-08 08:01:00,64.6,35.6,29.14,South,180,2.7,4.0,34,0.00,,,0.00,VWS V13.01,2013-04-08 13:01:00,
2013-04-08 08:07:00,65.3,36.2,29.14,SW,225,4.5,4.9,34,0.00,,,0.00,VWS V13.01,2013-04-08 13:07:00,
2013-04-08 08:12:00,65.5,36.4,29.14,SE,135,2.7,4.5,34,0.00,,,0.00,VWS V13.01,2013-04-08 13:12:00,
2013-04-08 08:17:00,65.5,35.6,29.17,SW,225,3.6,7.2,33,0.00,,,0.00,VWS V13.01,2013-04-08 13:17:00,
2013-04-08 08:22:00,65.3,35.5,29.17,SW,225,3.1,3.1,33,0.00,,,0.00,VWS V13.01,2013-04-08 13:22:00,
2013-04-08 08:27:00,65.1,36.1,29.17,South,180,0.0,0.0,34,0.00,,,0.00,VWS V13.01,2013-04-08 13:27:00,
2013-04-08 08:32:00,64.9,35.2,29.17,South,180,6.3,8.3,33,0.00,,,0.00,VWS V13.01,2013-04-08 13:32:00,
2013-04-08 08:37:00,64.9,35.9,29.17,SW,225,2.7,6.3,34,0.00,,,0.00,VWS V13.01,2013-04-08 13:37:00,
2013-04-08 08:43:00,65.1,36.1,29.17,South,180,3.1,4.9,34,0.00,,,0.00,VWS V13.01,2013-04-08 13:43:00,
2013-04-08 08:48:00,65.1,36.1,29.17,South,180,6.3,7.2,34,0.00,,,0.00,VWS V13.01,2013-04-08 13:48:00,
2013-04-08 08:53:00,65.5,35.6,29.17,ESE,112,2.2,2.2,33,0.00,,,0.00,VWS V13.01,2013-04-08 13:53:00,
2013-04-08 08:58:00,65.5,35.6,29.17,South,180,3.1,4.9,33,0.00,,,0.00,VWS V13.01,2013-04-08 13:58:00,
2013-04-08 09:03:00,65.7,35.8,29.17,ESE,112,0.0,0.0,33,0.00,,,0.00,VWS V13.01,2013-04-08 14:03:00,
2013-04-08 09:08:00,66.0,36.1,29.17,South,180,4.9,8.7,33,0.00,,,0.00,VWS V13.01,2013-04-08 14:08:00,
2013-04-08 09:13:00,66.4,36.4,29.17,South,180,0.0,0.0,33,0.00,,,0.00,VWS V13.01,2013-04-08 14:13:00,
2013-04-08 09:18:00,66.6,36.6,29.17,SSE,158,2.2,3.1,33,0.00,,,0.00,VWS V13.01,2013-04-08 14:18:00,
2013-04-08 09:23:00,66.6,35.8,29.20,SE,135,2.7,2.7,32,0.00,,,0.00,VWS V13.01,2013-04-08 14:23:00,
2013-04-08 09:28:00,66.6,35.8,29.20,SSE,158,0.0,0.0,32,0.00,,,0.00,VWS V13.01,2013-04-08 14:28:00,
2013-04-08 09:33:00,66.9,36.1,29.20,ESE,112,0.0,0.0,32,0.00,,,0.00,VWS V13.01,2013-04-08 14:33:00,
2013-04-08 09:38:00,67.5,35.8,29.20,SE,135,4.0,7.2,31,0.00,,,0.00,VWS V13.01,2013-04-08 14:38:00,
2013-04-08 09:44:00,68.0,34.6,29.20,West,270,5.8,5.8,29,0.00,,,0.00,VWS V13.01,2013-04-08 14:44:00,
2013-04-08 09:49:00,68.0,34.6,29.20,South,180,5.4,5.4,29,0.00,,,0.00,VWS V13.01,2013-04-08 14:49:00,
2013-04-08 09:54:00,68.4,34.0,29.20,SW,225,5.4,5.4,28,0.00,,,0.00,VWS V13.01,2013-04-08 14:54:00,
2013-04-08 09:59:00,69.3,33.9,29.20,SW,225,3.6,5.8,27,0.00,,,0.00,VWS V13.01,2013-04-08 14:59:00,
2013-04-08 10:05:00,70.3,32.9,29.20,SW,225,6.3,6.3,25,0.00,,,0.00,VWS V13.01,2013-04-08 15:05:00,
2013-04-08 10:10:00,70.0,32.6,29.20,SW,225,0.0,0.0,25,0.00,,,0.00,VWS V13.01,2013-04-08 15:10:00,
2013-04-08 10:15:00,70.7,33.2,29.20,South,180,0.0,4.9,25,0.00,,,0.00,VWS V13.01,2013-04-08 15:15:00,
2013-04-08 10:20:00,71.6,32.9,29.20,SW,225,0.0,0.0,24,0.00,,,0.00,VWS V13.01,2013-04-08 15:20:00,
2013-04-08 10:25:00,71.8,32.0,29.20,SW,225,7.6,7.6,23,0.00,,,0.00,VWS V13.01,2013-04-08 15:25:00,
2013-04-08 10:31:00,71.4,32.8,29.20,SW,225,4.9,5.8,24,0.00,,,0.00,VWS V13.01,2013-04-08 15:31:00,
2013-04-08 10:36:00,72.0,32.2,29.20,South,180,7.6,9.2,23,0.00,,,0.00,VWS V13.01,2013-04-08 15:36:00,
2013-04-08 10:41:00,71.6,31.9,29.20,West,270,6.7,9.6,23,0.00,,,0.00,VWS V13.01,2013-04-08 15:41:00,
2013-04-08 10:46:00,72.0,32.2,29.20,South,180,5.8,7.6,23,0.00,,,0.00,VWS V13.01,2013-04-08 15:46:00,
2013-04-08 10:52:00,72.7,31.7,29.20,SW,225,8.7,8.7,22,0.00,,,0.00,VWS V13.01,2013-04-08 15:52:00,
2013-04-08 10:57:00,72.7,31.7,29.20,SW,225,3.6,8.1,22,0.00,,,0.00,VWS V13.01,2013-04-08 15:57:00,
2013-04-08 11:02:00,72.5,31.5,29.23,West,270,5.8,9.6,22,0.00,,,0.00,VWS V13.01,2013-04-08 16:02:00,
2013-04-08 11:07:00,73.4,31.1,29.23,SW,225,9.2,9.2,21,0.00,,,0.00,VWS V13.01,2013-04-08 16:07:00,
2013-04-08 11:12:00,73.0,32.0,29.23,SW,225,0.0,8.1,22,0.00,,,0.00,VWS V13.01,2013-04-08 16:12:00,
2013-04-08 11:17:00,74.1,31.7,29.20,SE,135,0.0,2.2,21,0.00,,,0.00,VWS V13.01,2013-04-08 16:17:00,
2013-04-08 11:22:00,74.3,31.9,29.20,West,270,5.8,7.6,21,0.00,,,0.00,VWS V13.01,2013-04-08 16:22:00,
2013-04-08 11:27:00,74.7,32.2,29.20,SW,225,7.2,7.2,21,0.00,,,0.00,VWS V13.01,2013-04-08 16:27:00,
2013-04-08 11:32:00,74.3,31.9,29.20,West,270,6.3,6.3,21,0.00,,,0.00,VWS V13.01,2013-04-08 16:32:00,
2013-04-08 11:37:00,74.8,32.3,29.20,West,270,6.3,6.3,21,0.00,,,0.00,VWS V13.01,2013-04-08 16:37:00,
2013-04-08 11:43:00,74.5,32.0,29.20,West,270,8.1,10.5,21,0.00,,,0.00,VWS V13.01,2013-04-08 16:43:00,
2013-04-08 11:48:00,74.1,31.7,29.20,West,270,8.3,10.1,21,0.00,,,0.00,VWS V13.01,2013-04-08 16:48:00,
2013-04-08 11:53:00,74.3,31.9,29.20,West,270,5.4,8.1,21,0.00,,,0.00,VWS V13.01,2013-04-08 16:53:00,
2013-04-08 11:58:00,74.5,32.0,29.20,West,270,5.8,5.8,21,0.00,,,0.00,VWS V13.01,2013-04-08 16:58:00,
2013-04-08 12:04:00,74.8,32.3,29.20,West,270,5.4,6.3,21,0.00,,,0.00,VWS V13.01,2013-04-08 17:04:00,
2013-04-08 12:09:00,75.4,31.6,29.20,West,270,11.0,11.0,20,0.00,,,0.00,VWS V13.01,2013-04-08 17:09:00,
2013-04-08 12:18:00,74.8,32.3,29.20,West,270,9.2,10.5,21,0.00,,,0.00,VWS V13.01,2013-04-08 17:18:00,
2013-04-08 12:24:00,75.7,31.9,29.20,NW,315,2.7,6.3,20,0.00,,,0.00,VWS V13.01,2013-04-08 17:24:00,
2013-04-08 12:29:00,76.3,32.3,29.20,West,270,5.8,8.7,20,0.00,,,0.00,VWS V13.01,2013-04-08 17:29:00,
2013-04-08 13:55:00,80.4,28.6,29.17,East,90,2.7,5.4,15,0.00,,,0.00,VWS V13.01,2013-04-08 18:55:00,
2013-04-08 14:00:00,80.6,27.0,29.17,SE,135,0.0,5.8,14,0.00,,,0.00,VWS V13.01,2013-04-08 19:00:00,
2013-04-08 14:05:00,80.1,28.3,29.17,SE,135,4.9,4.9,15,0.00,,,0.00,VWS V13.01,2013-04-08 19:05:00,
2013-04-08 14:10:00,80.4,28.6,29.17,East,90,0.0,0.0,15,0.00,,,0.00,VWS V13.01,2013-04-08 19:10:00,
2013-04-08 14:15:00,81.1,27.5,29.17,SE,135,4.9,7.6,14,0.00,,,0.00,VWS V13.01,2013-04-08 19:15:00,
2013-04-08 14:21:00,81.0,27.3,29.17,SE,135,5.4,6.3,14,0.00,,,0.00,VWS V13.01,2013-04-08 19:21:00,
2013-04-08 14:26:00,80.8,27.2,29.17,SE,135,3.1,7.6,14,0.00,,,0.00,VWS V13.01,2013-04-08 19:26:00,
2013-04-08 14:32:00,80.8,27.2,29.17,SW,225,5.4,5.4,14,0.00,,,0.00,VWS V13.01,2013-04-08 19:32:00,
2013-04-08 14:37:00,80.8,27.2,29.17,SE,135,8.3,8.3,14,0.00,,,0.00,VWS V13.01,2013-04-08 19:37:00,
2013-04-08 14:42:00,80.8,27.2,29.17,South,180,4.9,8.1,14,0.00,,,0.00,VWS V13.01,2013-04-08 19:42:00,
2013-04-08 14:47:00,80.2,28.4,29.14,South,180,6.3,6.7,15,0.00,,,0.00,VWS V13.01,2013-04-08 19:47:00,
2013-04-08 14:52:00,79.7,28.0,29.14,SE,135,2.7,2.7,15,0.00,,,0.00,VWS V13.01,2013-04-08 19:52:00,
2013-04-08 14:57:00,80.2,28.4,29.14,SSE,158,10.5,10.5,15,0.00,,,0.00,VWS V13.01,2013-04-08 19:57:00,
2013-04-08 15:02:00,80.1,28.3,29.14,SE,135,0.0,3.6,15,0.00,,,0.00,VWS V13.01,2013-04-08 20:02:00,
2013-04-08 15:07:00,80.2,28.4,29.14,SE,135,8.7,10.1,15,0.00,,,0.00,VWS V13.01,2013-04-08 20:07:00,
2013-04-08 15:12:00,80.2,28.4,29.14,SE,135,5.8,8.1,15,0.00,,,0.00,VWS V13.01,2013-04-08 20:12:00,
2013-04-08 15:18:00,80.2,28.4,29.14,SE,135,3.1,6.3,15,0.00,,,0.00,VWS V13.01,2013-04-08 20:18:00,
2013-04-08 15:23:00,80.4,28.6,29.14,SE,135,9.6,9.6,15,0.00,,,0.00,VWS V13.01,2013-04-08 20:23:00,
2013-04-08 15:28:00,80.6,27.0,29.14,SE,135,4.9,4.9,14,0.00,,,0.00,VWS V13.01,2013-04-08 20:28:00,
2013-04-08 15:33:00,80.8,27.2,29.14,SE,135,3.6,4.9,14,0.00,,,0.00,VWS V13.01,2013-04-08 20:33:00,
2013-04-08 15:39:00,80.8,27.2,29.14,East,90,3.1,4.0,14,0.00,,,0.00,VWS V13.01,2013-04-08 20:39:00,
2013-04-08 15:44:00,80.8,27.2,29.14,South,180,6.3,6.3,14,0.00,,,0.00,VWS V13.01,2013-04-08 20:44:00,
2013-04-08 15:49:00,80.8,27.2,29.14,SE,135,2.7,6.3,14,0.00,,,0.00,VWS V13.01,2013-04-08 20:49:00,
2013-04-08 15:55:00,80.8,27.2,29.14,SE,135,6.3,11.0,14,0.00,,,0.00,VWS V13.01,2013-04-08 20:55:00,
2013-04-08 16:00:00,80.8,27.2,29.14,SE,135,3.1,4.0,14,0.00,,,0.00,VWS V13.01,2013-04-08 21:00:00,
2013-04-08 16:05:00,80.8,27.2,29.14,SSE,158,8.3,8.3,14,0.00,,,0.00,VWS V13.01,2013-04-08 21:05:00,
2013-04-08 16:10:00,80.8,27.2,29.14,South,180,4.9,4.9,14,0.00,,,0.00,VWS V13.01,2013-04-08 21:10:00,
2013-04-08 16:15:00,80.2,28.4,29.14,SE,135,5.8,5.8,15,0.00,,,0.00,VWS V13.01,2013-04-08 21:15:00,
2013-04-08 16:20:00,80.4,28.6,29.17,SE,135,8.3,8.3,15,0.00,,,0.00,VWS V13.01,2013-04-08 21:20:00,
2013-04-08 16:25:00,80.2,28.4,29.17,South,180,5.8,6.3,15,0.00,,,0.00,VWS V13.01,2013-04-08 21:25:00,
2013-04-08 16:30:00,79.9,28.1,29.17,SSE,158,8.3,8.3,15,0.00,,,0.00,VWS V13.01,2013-04-08 21:30:00,
2013-04-08 16:37:00,80.1,28.3,29.17,SE,135,5.4,6.3,15,0.00,,,0.00,VWS V13.01,2013-04-08 21:37:00,
2013-04-08 16:47:00,79.5,27.9,29.14,East,90,4.9,6.3,15,0.00,,,0.00,VWS V13.01,2013-04-08 21:47:00,
2013-04-08 16:52:00,79.7,28.0,29.14,SE,135,3.1,6.3,15,0.00,,,0.00,VWS V13.01,2013-04-08 21:52:00,
2013-04-08 16:57:00,79.9,28.1,29.14,SE,135,5.4,8.1,15,0.00,,,0.00,VWS V13.01,2013-04-08 21:57:00,
2013-04-08 17:02:00,79.7,28.0,29.17,SE,135,4.0,8.1,15,0.00,,,0.00,VWS V13.01,2013-04-08 22:02:00,
2013-04-08 17:07:00,79.5,27.9,29.17,SE,135,4.9,7.6,15,0.00,,,0.00,VWS V13.01,2013-04-08 22:07:00,
2013-04-08 17:12:00,79.5,27.9,29.17,SE,135,7.6,7.6,15,0.00,,,0.00,VWS V13.01,2013-04-08 22:12:00,
2013-04-08 17:17:00,79.3,27.7,29.17,ESE,112,7.6,7.6,15,0.00,,,0.00,VWS V13.01,2013-04-08 22:17:00,
2013-04-08 17:22:00,79.2,27.6,29.17,SSE,158,5.8,9.2,15,0.00,,,0.00,VWS V13.01,2013-04-08 22:22:00,
2013-04-08 17:27:00,79.0,27.4,29.17,SE,135,4.0,7.6,15,0.00,,,0.00,VWS V13.01,2013-04-08 22:27:00,
2013-04-08 17:33:00,78.3,26.9,29.17,SSE,158,4.9,8.3,15,0.00,,,0.00,VWS V13.01,2013-04-08 22:33:00,
2013-04-08 17:38:00,78.4,27.0,29.17,South,180,5.4,5.4,15,0.00,,,0.00,VWS V13.01,2013-04-08 22:38:00,
2013-04-08 17:43:00,78.3,26.9,29.17,SE,135,6.3,8.3,15,0.00,,,0.00,VWS V13.01,2013-04-08 22:43:00,
2013-04-08 17:48:00,78.1,26.7,29.17,SE,135,3.1,5.4,15,0.00,,,0.00,VWS V13.01,2013-04-08 22:48:00,
2013-04-08 17:53:00,77.9,26.6,29.17,SE,135,6.3,6.3,15,0.00,,,0.00,VWS V13.01,2013-04-08 22:53:00,
2013-04-08 17:59:00,78.1,26.7,29.17,SE,135,4.0,5.8,15,0.00,,,0.00,VWS V13.01,2013-04-08 22:59:00,
2013-04-08 18:04:00,78.3,26.9,29.17,SE,135,4.0,4.0,15,0.00,,,0.00,VWS V13.01,2013-04-08 23:04:00,
2013-04-08 18:09:00,78.3,26.9,29.17,SE,135,3.1,8.1,15,0.00,,,0.00,VWS V13.01,2013-04-08 23:09:00,
2013-04-08 18:15:00,78.1,26.7,29.17,SE,135,6.3,6.3,15,0.00,,,0.00,VWS V13.01,2013-04-08 23:15:00,
2013-04-08 18:20:00,77.9,26.6,29.17,SE,135,6.7,6.7,15,0.00,,,0.00,VWS V13.01,2013-04-08 23:20:00,
2013-04-08 18:25:00,77.2,26.0,29.17,SE,135,6.3,6.3,15,0.00,,,0.00,VWS V13.01,2013-04-08 23:25:00,
2013-04-08 18:31:00,76.8,25.7,29.17,SE,135,4.9,4.9,15,0.00,,,0.00,VWS V13.01,2013-04-08 23:31:00,
2013-04-08 18:36:00,76.8,25.7,29.17,South,180,8.3,8.3,15,0.00,,,0.00,VWS V13.01,2013-04-08 23:36:00,
2013-04-08 18:41:00,76.3,25.3,29.17,SE,135,5.8,5.8,15,0.00,,,0.00,VWS V13.01,2013-04-08 23:41:00,
2013-04-08 18:47:00,76.1,25.1,29.17,SE,135,4.9,4.9,15,0.00,,,0.00,VWS V13.01,2013-04-08 23:47:00,
2013-04-08 18:52:00,75.7,24.9,29.17,SSE,158,6.3,6.3,15,0.00,,,0.00,VWS V13.01,2013-04-08 23:52:00,
2013-04-08 18:57:00,75.4,24.6,29.17,South,180,0.0,5.4,15,0.00,,,0.00,VWS V13.01,2013-04-08 23:57:00,
2013-04-08 19:02:00,75.2,24.4,29.20,SE,135,3.1,5.8,15,0.00,,,0.00,VWS V13.01,2013-04-09 00:02:00,
2013-04-08 19:07:00,75.0,25.8,29.20,SE,135,0.0,5.4,16,0.00,,,0.00,VWS V13.01,2013-04-09 00:07:00,
2013-04-08 19:12:00,74.7,25.5,29.20,SE,135,5.4,5.4,16,0.00,,,0.00,VWS V13.01,2013-04-09 00:12:00,
2013-04-08 19:17:00,74.5,25.4,29.17,SE,135,10.1,10.1,16,0.00,,,0.00,VWS V13.01,2013-04-09 00:17:00,
2013-04-08 19:23:00,74.5,25.4,29.17,SE,135,6.3,6.3,16,0.00,,,0.00,VWS V13.01,2013-04-09 00:23:00,
2013-04-08 19:28:00,74.3,25.2,29.17,SE,135,6.7,6.7,16,0.00,,,0.00,VWS V13.01,2013-04-09 00:28:00,
2013-04-08 19:33:00,73.9,25.0,29.20,SSE,158,6.3,6.3,16,0.00,,,0.00,VWS V13.01,2013-04-09 00:33:00,
2013-04-08 19:38:00,73.8,24.8,29.20,SE,135,0.0,5.4,16,0.00,,,0.00,VWS V13.01,2013-04-09 00:38:00,
2013-04-08 19:43:00,73.6,24.7,29.20,SE,135,8.3,8.3,16,0.00,,,0.00,VWS V13.01,2013-04-09 00:43:00,
2013-04-08 19:49:00,73.4,24.5,29.20,SE,135,3.6,3.6,16,0.00,,,0.00,VWS V13.01,2013-04-09 00:49:00,
2013-04-08 19:54:00,73.2,24.4,29.20,SE,135,4.0,5.4,16,0.00,,,0.00,VWS V13.01,2013-04-09 00:54:00,
2013-04-08 19:59:00,73.0,24.2,29.20,ESE,112,6.3,8.3,16,0.00,,,0.00,VWS V13.01,2013-04-09 00:59:00,
2013-04-08 20:04:00,72.9,24.1,29.20,SE,135,2.7,4.0,16,0.00,,,0.00,VWS V13.01,2013-04-09 01:04:00,
2013-04-08 20:10:00,72.7,23.9,29.20,SE,135,5.4,5.8,16,0.00,,,0.00,VWS V13.01,2013-04-09 01:10:00,
2013-04-08 20:15:00,72.5,23.8,29.20,SE,135,4.9,6.3,16,0.00,,,0.00,VWS V13.01,2013-04-09 01:15:00,
2013-04-08 20:20:00,72.5,23.8,29.20,South,180,4.5,5.8,16,0.00,,,0.00,VWS V13.01,2013-04-09 01:20:00,
2013-04-08 20:25:00,72.3,23.6,29.20,SE,135,4.0,4.0,16,0.00,,,0.00,VWS V13.01,2013-04-09 01:25:00,
2013-04-08 20:30:00,72.1,27.6,29.20,SE,135,0.0,0.0,19,0.00,,,0.00,VWS V13.01,2013-04-09 01:30:00,
2013-04-08 20:35:00,72.0,27.5,29.20,SE,135,3.6,3.6,19,0.00,,,0.00,VWS V13.01,2013-04-09 01:35:00,
2013-04-08 20:41:00,71.8,27.3,29.20,SE,135,3.6,4.0,19,0.00,,,0.00,VWS V13.01,2013-04-09 01:41:00,
2013-04-08 20:46:00,71.6,27.2,29.20,SSE,158,2.7,4.0,19,0.00,,,0.00,VWS V13.01,2013-04-09 01:46:00,
2013-04-08 20:51:00,71.6,27.2,29.20,SE,135,2.7,5.8,19,0.00,,,0.00,VWS V13.01,2013-04-09 01:51:00,
2013-04-08 20:56:00,71.6,27.2,29.20,SE,135,4.0,4.0,19,0.00,,,0.00,VWS V13.01,2013-04-09 01:56:00,
2013-04-08 21:01:00,71.4,27.0,29.20,SE,135,8.1,8.1,19,0.00,,,0.00,VWS V13.01,2013-04-09 02:01:00,
2013-04-08 21:07:00,71.4,27.0,29.23,SE,135,4.9,6.3,19,0.00,,,0.00,VWS V13.01,2013-04-09 02:07:00,
2013-04-08 21:12:00,71.4,27.0,29.23,SE,135,5.4,5.4,19,0.00,,,0.00,VWS V13.01,2013-04-09 02:12:00,
2013-04-08 21:17:00,71.6,27.2,29.23,SE,135,6.3,6.3,19,0.00,,,0.00,VWS V13.01,2013-04-09 02:17:00,
2013-04-08 21:22:00,71.6,27.2,29.23,SE,135,7.6,7.6,19,0.00,,,0.00,VWS V13.01,2013-04-09 02:22:00,
2013-04-08 21:28:00,71.6,27.2,29.23,SE,135,5.4,7.6,19,0.00,,,0.00,VWS V13.01,2013-04-09 02:28:00,
2013-04-08 21:33:00,71.6,27.2,29.23,SE,135,5.4,7.6,19,0.00,,,0.00,VWS V13.01,2013-04-09 02:33:00,
2013-04-08 21:38:00,71.4,27.0,29.23,SE,135,3.6,4.0,19,0.00,,,0.00,VWS V13.01,2013-04-09 02:38:00,
2013-04-08 21:43:00,71.4,27.0,29.23,SE,135,7.2,7.2,19,0.00,,,0.00,VWS V13.01,2013-04-09 02:43:00,
2013-04-08 21:48:00,71.4,30.6,29.23,SE,135,4.9,5.8,22,0.00,,,0.00,VWS V13.01,2013-04-09 02:48:00,
2013-04-08 21:53:00,71.4,30.6,29.23,ESE,112,5.4,5.8,22,0.00,,,0.00,VWS V13.01,2013-04-09 02:53:00,
2013-04-08 21:58:00,71.4,30.6,29.23,SE,135,6.3,8.7,22,0.00,,,0.00,VWS V13.01,2013-04-09 02:58:00,
2013-04-08 22:04:00,71.2,30.5,29.23,SE,135,8.7,8.7,22,0.00,,,0.00,VWS V13.01,2013-04-09 03:04:00,
2013-04-08 22:09:00,71.2,30.5,29.23,SE,135,5.4,5.8,22,0.00,,,0.00,VWS V13.01,2013-04-09 03:09:00,
2013-04-08 22:14:00,71.2,30.5,29.23,SE,135,3.6,3.6,22,0.00,,,0.00,VWS V13.01,2013-04-09 03:14:00,
2013-04-08 22:19:00,70.9,30.2,29.23,East,90,3.6,5.4,22,0.00,,,0.00,VWS V13.01,2013-04-09 03:19:00,
2013-04-08 22:25:00,70.7,30.0,29.23,SE,135,5.8,7.6,22,0.00,,,0.00,VWS V13.01,2013-04-09 03:25:00,
2013-04-08 22:30:00,70.7,30.0,29.23,SE,135,0.0,0.0,22,0.00,,,0.00,VWS V13.01,2013-04-09 03:30:00,
2013-04-08 22:35:00,70.5,29.9,29.23,SE,135,7.6,7.6,22,0.00,,,0.00,VWS V13.01,2013-04-09 03:35:00,
2013-04-08 22:40:00,70.5,29.9,29.23,SE,135,3.1,6.3,22,0.00,,,0.00,VWS V13.01,2013-04-09 03:40:00,
2013-04-08 22:45:00,70.3,29.7,29.23,South,180,2.7,3.6,22,0.00,,,0.00,VWS V13.01,2013-04-09 03:45:00,
2013-04-08 22:50:00,70.2,29.6,29.23,South,180,5.4,8.1,22,0.00,,,0.00,VWS V13.01,2013-04-09 03:50:00,
2013-04-08 22:56:00,70.2,29.6,29.23,SE,135,3.1,5.4,22,0.00,,,0.00,VWS V13.01,2013-04-09 03:56:00,
2013-04-08 23:00:00,70.2,29.6,29.23,ESE,112,3.1,4.5,22,0.00,,,0.00,VWS V13.01,2013-04-09 04:00:00,
2013-04-08 23:01:00,70.2,29.6,29.23,SE,135,2.7,4.0,22,0.00,,,0.00,VWS V13.01,2013-04-09 04:01:00,
2013-04-08 23:03:00,70.0,29.4,29.23,SE,135,7.2,7.2,22,0.00,,,0.00,VWS V13.01,2013-04-09 04:03:00,
2013-04-08 23:08:00,70.0,29.4,29.23,South,180,2.7,5.4,22,0.00,,,0.00,VWS V13.01,2013-04-09 04:08:00,
2013-04-08 23:14:00,69.8,30.4,29.23,East,90,3.6,3.6,23,0.00,,,0.00,VWS V13.01,2013-04-09 04:14:00,
2013-04-08 23:19:00,69.8,30.4,29.26,ESE,112,7.6,7.6,23,0.00,,,0.00,VWS V13.01,2013-04-09 04:19:00,
2013-04-08 23:24:00,69.8,30.4,29.26,SE,135,5.8,8.3,23,0.00,,,0.00,VWS V13.01,2013-04-09 04:24:00,
2013-04-08 23:29:00,69.8,30.4,29.26,SSE,158,4.0,4.0,23,0.00,,,0.00,VWS V13.01,2013-04-09 04:29:00,
2013-04-08 23:34:00,69.8,30.4,29.26,SW,225,6.3,6.3,23,0.00,,,0.00,VWS V13.01,2013-04-09 04:34:00,
2013-04-08 23:40:00,69.8,30.4,29.26,NW,315,0.0,4.9,23,0.00,,,0.00,VWS V13.01,2013-04-09 04:40:00,
2013-04-08 23:45:00,69.8,30.4,29.26,SE,135,4.9,11.0,23,0.00,,,0.00,VWS V13.01,2013-04-09 04:45:00,
2013-04-08 23:50:00,70.0,30.5,29.26,SE,135,8.7,8.7,23,0.00,,,0.00,VWS V13.01,2013-04-09 04:50:00,
2013-04-08 23:55:00,70.0,30.5,29.26,SW,225,4.9,4.9,23,0.00,,,0.00,VWS V13.01,2013-04-09 04:55:00,